Regional Weather Roundup
Issued by NWS

Home | Current Version | Previous Version | Text Only | Print | Product List | Glossary Off
Versions: 1 2 3 4 5 6 7 8 9 10 11 12 13 14 15 16 17 18 19 20 21 22 23 24 25 26 27 28 29 30 31 32 33 34 35 36 37 38 39 40 41 42 43 44 45 46 47 48 49 50

000
ASUS45 KCYS 232210
RWRWY

WYOMING REGIONAL WEATHER ROUNDUP
NATIONAL WEATHER SERVICE CHEYENNE WY
400 PM MDT MON MAY 23 2016

NOTE:  "FAIR" INDICATES FEW OR NO CLOUDS BELOW 12,000 FEET
WITH NO SIGNIFICANT WEATHER AND/OR OBSTRUCTIONS TO VISIBILITY.

WYZ001-232300-
YELLOWSTONE NATIONAL PARK

CITY           SKY/WX    TMP DP  RH WIND       PRES   REMARKS
LK YELLOWSTONE   N/A     39  30  70 VRB6      29.95R WCI  35
W YELLOWSTONE  NOT AVBL

$$
WYZ002>013-054>058-071-098>099-232300-
NORTHERN WYOMING

CITY           SKY/WX    TMP DP  RH WIND       PRES   REMARKS
JACKSON        PTSUNNY   54  25  32 SW9G17    29.89F
CODY           FAIR      57  25  28 W9        29.80S
GREYBULL       CLOUDY    64  21  19 S14       29.76S
WORLAND        FAIR      68  19  15 NE6       29.77S
SHERIDAN       FAIR      69  27  20 N8        29.75R
BUFFALO        PTSUNNY   65  29  25 N13G22    29.78S
GILLETTE       FAIR      67  26  21 SW15G22   29.74S
HULETT         FAIR      68  21  17 SW10G25   29.75R
NEWCASTLE      FAIR      70  18  13 SW15G24   29.77F

$$
WYZ014>020-022>026-101>103-232300-
CENTRAL WYOMING

CITY           SKY/WX    TMP DP  RH WIND       PRES   REMARKS
BIG PINEY      FAIR      54  24  31 VRB7G21   29.93F
PINEDALE       MOCLDY    52  25  35 W17       29.93S
DUBOIS         CLOUDY    45  28  53 NW13G22   29.90R
LANDER         FAIR      58  31  35 SW26G37   29.83F
RIVERTON       FAIR      63  23  21 W23G30    29.83F
CASPER         PTSUNNY   65  25  22 W20G28    29.83S
DOUGLAS        FAIR      68  26  20 W23G32    29.82F

$$
WYZ021-027>030-104>119-232300-
SOUTHERN WYOMING

CITY           SKY/WX    TMP DP  RH WIND       PRES   REMARKS
EVANSTON       CLOUDY    52  29  41 SW6       29.94F
KEMMERER         N/A     54  27  35 W18       29.95F
FORT BRIDGER   LGT RAIN  50  36  57 SW6G16    30.00R
ROCK SPRINGS   LGT RAIN  49  36  61 W26G33    29.96R
DIXON          FAIR      62  26  25 W15G26    29.93F
RAWLINS        FAIR      59  22  24 W17       29.92F
SARATOGA       FAIR      61  23  23 SW15G25   29.93S
LARAMIE        CLOUDY    58  21  24 SW14G22   29.91S
CHEYENNE       PTSUNNY   57  39  51 SW16      29.91R THUNDER
TORRINGTON     PTSUNNY   65  39  38 S17       29.81R
PINE BLUFFS    FAIR      63  37  39 S21G29    29.87S

$$



USA.gov is the U.S. government's official web portal to all federal, state and local government web resources and services.